Regional Weather Roundup
Issued by NWS

Home | Current Version | Previous Version | Graphics & Text | Print | Product List | Glossary On
Versions: 1 2 3 4 5 6 7 8 9 10 11 12 13 14 15 16 17 18 19 20 21 22 23 24 25 26 27 28 29 30 31 32 33 34 35 36 37 38 39 40 41 42 43 44 45 46 47 48 49 50
000
ASUS43 KBIS 150302
RWRND

NORTH DAKOTA REGIONAL WEATHER ROUNDUP
NATIONAL WEATHER SERVICE BISMARCK ND
900 PM CST THU DEC 14 2017

NOTE: "FAIR" INDICATES FEW OR NO CLOUDS BELOW 12,000 FEET WITH NO
SIGNIFICANT WEATHER AND/OR OBSTRUCTIONS TO VISIBILITY.


NDZ001>003-009>011-017-150400-
NORTHWEST NORTH DAKOTA

CITY           SKY/WX    TMP DP  RH WIND       PRES   REMARKS
WILLISTON      PTCLDY    25  21  85 W6        30.05F WCI  18
MINOT          CLOUDY    32  23  69 NW14      30.00F
MINOT AFB      CLOUDY    31  22  69 NW15      29.99F
$$

NDZ018>021-031>035-040>046-150400-
SOUTHWEST NORTH DAKOTA

CITY           SKY/WX    TMP DP  RH WIND       PRES   REMARKS
BISMARCK       CLOUDY    34  25  69 W7        30.05F
DICKINSON      CLEAR     22  18  85 W9        30.03F WCI  12
GARRISON         N/A     33  24  69 NW14      30.01F
HETTINGER ARPT CLOUDY    20  17  88 W3        30.09F
$$

NDZ004>008-012>016-024-026-027-054-150400-
NORTHEAST NORTH DAKOTA

CITY           SKY/WX    TMP DP  RH WIND       PRES   REMARKS
GRAND FORKS    CLOUDY    20  17  88 CALM      30.03F
GRND FRKS AFB  CLOUDY    19  18  93 CALM      30.03R
DEVILS LAKE    FLURRIES  29  26  89 N14       29.98S WCI  18
$$

NDZ022-023-025-028>030-036>039-047>053-150400-
SOUTHEAST NORTH DAKOTA

CITY           SKY/WX    TMP DP  RH WIND       PRES   REMARKS
FARGO          CLOUDY    24  21  88 E5        30.01F WCI  18
JAMESTOWN      CLOUDY    32  28  85 NW17G23   29.98F
$$





USA.gov is the U.S. government's official web portal to all federal, state and local government web resources and services.